Location: Asheville, NC
(35.6000°N, 82.5500°W)
Time: 17:23:23
(UTC-05:00)

XW-2B - Pass Details

Date: 09 January 2018
Orbit: 511 x 531 km, 97.5° (Epoch: 21 January)

Event Time Altitude Azimuth Distance (km) Brightness Sun altitude
Rises 06:33:37 0° 11° (NNE) 2,649 ? -13.4°
Reaches altitude 10° 06:35:44 10° 12° (NNE) 1,754 ? -12.9°
Maximum altitude 06:39:31 88° 99° (E) 521 ? -12.2°
Drops below altitude 10° 06:43:15 10° 192° (SSW) 1,730 ? -11.5°
Sets 06:45:20 0° 192° (SSW) 2,609 ? -11.1°
